This is the latest recevied weather packets stored in our database for station/object N3FU-13. If no packets are shown the sender has not sent any weather packets the latest 10 day(s).
| Time | Temp. | Humidity | Pressure | Rain* | Wind** | Luminosity | Snow |
|---|---|---|---|---|---|---|---|
| 1778083959 | 32.22° C | 65% | 1017.1 hPa | 0 mm | - | - | - |
| 1778083922 | 32.22° C | 65% | 1017.1 hPa | 0 mm | - | - | - |
| 1778083022 | 31.67° C | 67% | 1017.1 hPa | 0 mm | - | - | - |
| 1778082122 | 30.56° C | 68% | 1017 hPa | 0 mm | - | - | - |
| 1778081222 | 30.56° C | 69% | 1016.8 hPa | 0 mm | - | - | - |
| 1778080615 | 30° C | 71% | 1016.8 hPa | 0 mm | - | - | - |
| 1778080322 | 30° C | 71% | 1016.8 hPa | 0 mm | - | - | - |
| 1778080232 | 29.44° C | 72% | 1016.8 hPa | 0 mm | - | - | - |
| 1778079422 | 29.44° C | 72% | 1016.8 hPa | 0 mm | - | - | - |
| 1778078522 | 28.89° C | 75% | 1016.8 hPa | 0 mm | - | - | - |
| 1778077622 | 28.33° C | 78% | 1016.8 hPa | 0 mm | - | - | - |
| 1778076722 | 27.78° C | 81% | 1016.7 hPa | 0 mm | - | - | - |
| 1778075822 | 26.67° C | 82% | 1016.6 hPa | 0 mm | - | - | - |
| 1778074922 | 26.11° C | 85% | 1016.6 hPa | 0 mm | - | - | - |
| 1778074023 | 25.56° C | 87% | 1016.6 hPa | 0 mm | - | - | - |
| 1778073123 | 25° C | 89% | 1016.7 hPa | 0 mm | - | - | - |
| 1778072223 | 24.44° C | 91% | 1016.5 hPa | 0 mm | - | - | - |
| 1778071323 | 23.89° C | 94% | 1016.3 hPa | 0 mm | - | - | - |
| 1778070551 | 23.33° C | 96% | 1016.3 hPa | 0 mm | - | - | - |
| 1778070423 | 23.33° C | 96% | 1016.3 hPa | 0 mm | - | - | - |
| 1778069523 | 22.78° C | 96% | 1016 hPa | 0 mm | - | - | - |
| 1778068623 | 22.22° C | 96% | 1015.9 hPa | 0 mm | - | - | - |
| 1778067723 | 21.67° C | 96% | 1015.8 hPa | 0 mm | - | - | - |
| 1778066823 | 21.11° C | 95% | 1015.7 hPa | 0 mm | - | - | - |
| 1778065923 | 21.11° C | 94% | 1015.5 hPa | 0 mm | - | - | - |
* Rain latest hour (hover to see other rain measurements)
** Current wind speed in m/s (hover to see current wind gust speed)